DW8050 Weather Reports


Display with metric or nautical units.
time (UTC)temp
F
wind
direction
speed
MPH
gust
MPH
rain 1hr
in
rain 24hr
in
rain mn
in
humidity
%
barometer
mb
20260507070044 41 240 2.0 3.0 0.00 0.13 0.00 92 1005.5
20260507065516 41 236 2.0 3.0 0.00 0.13 0.00 92 1005.4
20260507065017 41 244 2.0 3.0 0.00 0.13 0.00 92 1005.4
20260507064544 41 244 2.0 3.0 0.00 0.13 0.00 92 1005.4
20260507064018 41 244 2.0 2.0 0.00 0.13 0.00 92 1005.4
20260507063518 41 244 2.0 4.0 0.00 0.13 0.00 92 1005.5
20260507063036 41 242 2.0 4.0 0.00 0.13 0.00 92 1005.4
20260507062518 41 239 3.0 5.0 0.00 0.13 0.00 91 1005.5
20260507062017 41 237 3.0 5.0 0.00 0.13 0.00 92 1005.6
20260507061532 41 257 2.0 4.0 0.00 0.13 0.00 92 1005.6
20260507061020 42 242 3.0 6.0 0.00 0.13 0.00 91 1005.6
20260507060515 42 233 3.0 6.0 0.00 0.13 0.00 91 1005.6
20260507060032 41 232 4.0 6.0 0.00 0.13 0.00 92 1005.7
20260507055516 41 234 3.0 5.0 0.00 0.13 0.00 92 1005.8
20260507055011 42 227 3.0 4.0 0.00 0.13 0.00 92 1005.8
20260507054530 42 223 3.0 4.0 0.00 0.13 0.00 92 1005.9
20260507054015 41 225 3.0 5.0 0.00 0.13 0.00 92 1006.0
20260507053516 41 221 3.0 5.0 0.00 0.13 0.00 92 1006.1
20260507053032 41 213 3.0 6.0 0.00 0.13 0.00 92 1006.1
20260507052515 41 225 3.0 6.0 0.00 0.13 0.00 92 1006.1
20260507052016 41 228 4.0 6.0 0.00 0.13 0.00 92 1006.1
20260507051532 41 238 4.0 6.0 0.00 0.13 0.00 92 1006.2
20260507051016 41 229 4.0 6.0 0.00 0.13 0.00 91 1006.2
20260507050515 42 227 4.0 6.0 0.00 0.13 0.00 91 1006.4
20260507050033 42 222 4.0 6.0 0.00 0.13 0.00 91 1006.5
20260507045515 42 229 4.0 6.0 0.00 0.13 0.00 91 1006.6
20260507045016 42 235 3.0 5.0 0.00 0.13 0.00 91 1006.6
20260507044530 42 240 3.0 5.0 0.00 0.13 0.00 91 1006.6
20260507044015 42 238 3.0 5.0 0.00 0.13 0.00 91 1006.7
20260507043516 42 229 4.0 5.0 0.00 0.13 0.00 91 1006.6
20260507043031 42 225 3.0 5.0 0.00 0.13 0.00 90 1006.7
20260507042516 42 227 3.0 5.0 0.00 0.13 0.00 90 1006.7
20260507042019 43 222 3.0 6.0 0.00 0.13 0.00 90 1006.8
20260507041533 43 221 4.0 6.0 0.00 0.13 0.00 90 1006.9
20260507041019 43 229 4.0 8.0 0.00 0.13 0.00 90 1006.8
20260507040517 43 221 5.0 8.0 0.00 0.13 0.00 90 1006.9
20260507040037 43 225 6.0 8.0 0.00 0.13 0.00 90 1006.9
20260507035520 43 224 5.0 10.0 0.00 0.13 0.13 90 1007.0
20260507035016 43 234 6.0 10.0 0.00 0.13 0.13 90 1007.0
20260507034539 43 244 6.0 9.0 0.00 0.13 0.13 90 1007.0
20260507034020 43 236 6.0 9.0 0.00 0.13 0.13 89 1007.1
20260507033516 43 242 6.0 9.0 0.00 0.13 0.13 89 1007.1
20260507033043 43 230 6.0 9.0 0.00 0.13 0.13 89 1007.1
20260507032517 43 228 6.0 9.0 0.00 0.13 0.13 89 1007.2
20260507032019 43 231 5.0 9.0 0.00 0.13 0.13 89 1007.1
20260507031550 43 232 5.0 9.0 0.00 0.13 0.13 89 1007.2
20260507031021 43 233 5.0 9.0 0.00 0.13 0.13 89 1007.2
20260507030516 44 232 5.0 9.0 0.00 0.13 0.13 89 1007.3
20260507030033 44 232 6.0 10.0 0.00 0.13 0.13 88 1007.3
20260507025516 44 213 6.0 10.0 0.00 0.13 0.13 88 1007.4
20260507025020 44 235 6.0 10.0 0.00 0.13 0.13 88 1007.4
20260507024534 44 238 6.0 11.0 0.00 0.13 0.13 87 1007.3
20260507024015 44 238 6.0 11.0 0.00 0.13 0.13 87 1007.4
20260507023515 44 227 6.0 9.0 0.00 0.13 0.13 87 1007.5
20260507023030 44 230 6.0 10.0 0.00 0.13 0.13 87 1007.5
20260507022516 44 226 6.0 10.0 0.00 0.13 0.13 88 1007.5
20260507022016 44 229 7.0 10.0 0.00 0.13 0.13 88 1007.6
20260507021530 44 223 6.0 10.0 0.00 0.13 0.13 88 1007.6
20260507021015 44 228 5.0 10.0 0.00 0.13 0.13 88 1007.6
20260507020516 44 233 6.0 9.0 0.00 0.13 0.13 88 1007.7
20260507020030 44 226 6.0 9.0 0.00 0.13 0.13 88 1007.7
20260507015515 44 232 5.0 8.0 0.00 0.13 0.13 88 1007.7
20260507015015 44 219 5.0 7.0 0.00 0.13 0.13 89 1007.8
20260507014541 44 215 3.0 5.0 0.00 0.13 0.13 90 1007.9
20260507014016 44 206 4.0 5.0 0.00 0.13 0.13 90 1007.9
20260507013516 44 206 3.0 5.0 0.00 0.13 0.13 90 1007.9
20260507013039 44 217 3.0 5.0 0.00 0.13 0.13 90 1008.0
20260507012516 44 195 3.0 4.0 0.00 0.13 0.13 90 1007.7
20260507012016 44 196 3.0 4.0 0.00 0.13 0.13 90 1007.8
20260507011536 44 198 2.0 3.0 0.00 0.13 0.13 90 1007.8
20260507011015 44 199 2.0 3.0 0.00 0.13 0.13 90 1007.7
20260507010516 44 200 2.0 3.0 0.00 0.13 0.13 89 1007.7
20260507010039 44 194 3.0 3.0 0.00 0.13 0.13 89 1007.6
20260507005515 45 207 2.0 3.0 0.00 0.13 0.13 88 1007.5
20260507005023 45 208 2.0 3.0 0.00 0.13 0.13 87 1007.5
20260507004532 45 211 2.0 5.0 0.00 0.13 0.13 87 1007.4
20260507004016 45 206 3.0 7.0 0.00 0.13 0.13 86 1007.4
20260507003515 45 192 4.0 7.0 0.00 0.13 0.13 86 1007.3
20260507003030 45 189 4.0 6.0 0.00 0.13 0.13 86 1007.3
20260507002515 45 175 4.0 5.0 0.00 0.13 0.13 86 1007.4
20260507002016 45 200 3.0 5.0 0.00 0.13 0.13 86 1007.3
20260507001535 46 201 3.0 5.0 0.00 0.13 0.13 85 1007.4
20260507001016 46 213 2.0 5.0 0.00 0.13 0.13 85 1007.4
20260507000516 46 213 3.0 6.0 0.00 0.13 0.13 85 1007.2
20260507000034 46 215 4.0 9.0 0.00 0.13 0.13 85 1007.3
20260506235519 46 215 4.0 9.0 0.00 0.13 0.13 85 1007.4
20260506235015 46 217 5.0 9.0 0.00 0.13 0.13 84 1007.3
20260506234530 46 221 4.0 6.0 0.00 0.13 0.13 85 1007.2
20260506234016 46 213 4.0 7.0 0.00 0.13 0.13 85 1007.1
20260506233517 46 221 5.0 7.0 0.00 0.13 0.13 84 1007.2
20260506233031 46 202 4.0 6.0 0.00 0.13 0.13 84 1007.1
20260506232516 46 209 3.0 7.0 0.00 0.13 0.13 85 1007.1
20260506232016 46 220 5.0 7.0 0.00 0.13 0.13 84 1007.2
20260506231535 46 212 5.0 7.0 0.00 0.13 0.13 83 1007.2
20260506231016 46 204 3.0 9.0 0.00 0.13 0.13 84 1007.2
20260506230515 47 234 5.0 10.0 0.00 0.13 0.13 82 1007.2
20260506230033 47 241 7.0 10.0 0.00 0.13 0.13 82 1007.1
20260506225516 47 244 5.0 9.0 0.00 0.13 0.13 81 1007.2
20260506225023 47 242 6.0 10.0 0.00 0.13 0.13 81 1007.2
20260506224534 47 240 8.0 11.0 0.00 0.13 0.13 80 1007.3
20260506224015 47 227 8.0 11.0 0.00 0.13 0.13 80 1007.3
20260506223515 47 223 6.0 9.0 0.00 0.13 0.13 82 1007.4
20260506223031 47 213 6.0 9.0 0.00 0.13 0.13 83 1007.3
20260506222517 47 218 6.0 10.0 0.00 0.13 0.13 80 1007.4
20260506222017 47 229 6.0 11.0 0.00 0.13 0.13 80 1007.3
20260506221530 47 227 7.0 11.0 0.00 0.13 0.13 80 1007.2
20260506221015 47 219 6.0 8.0 0.00 0.13 0.13 81 1007.4
20260506220516 47 242 5.0 8.0 0.00 0.13 0.13 81 1007.3
20260506220032 47 219 5.0 9.0 0.00 0.13 0.13 81 1007.3
20260506215516 47 231 6.0 10.0 0.00 0.13 0.13 81 1007.4
20260506215016 47 215 5.0 10.0 0.00 0.13 0.13 82 1007.3
20260506214531 47 215 5.0 9.0 0.00 0.13 0.13 81 1007.3
20260506214020 47 218 7.0 9.0 0.00 0.13 0.13 80 1007.3
20260506213522 47 229 6.0 9.0 0.00 0.13 0.13 82 1007.4
20260506213037 47 226 4.0 8.0 0.00 0.13 0.13 82 1007.4
20260506212516 47 192 5.0 8.0 0.00 0.13 0.13 82 1007.4
20260506212019 47 218 6.0 8.0 0.00 0.13 0.13 82 1007.6
20260506211533 47 213 4.0 9.0 0.00 0.13 0.13 82 1007.4
20260506211017 47 217 5.0 9.0 0.00 0.13 0.13 82 1007.4
20260506210517 47 209 4.0 8.0 0.00 0.13 0.13 82 1007.3
20260506210034 47 199 5.0 8.0 0.00 0.13 0.13 81 1007.3
20260506205516 47 215 5.0 9.0 0.00 0.13 0.13 82 1007.7
20260506205016 47 175 5.0 9.0 0.00 0.13 0.13 82 1007.5
20260506204530 47 219 4.0 8.0 0.00 0.13 0.13 82 1007.4
20260506204016 47 218 6.0 8.0 0.00 0.13 0.13 80 1007.7
20260506203516 47 226 6.0 8.0 0.00 0.13 0.13 81 1007.7
20260506203038 47 223 4.0 7.0 0.00 0.13 0.13 81 1007.7
20260506202516 46 214 3.0 7.0 0.00 0.13 0.13 84 1007.6
20260506202017 46 200 5.0 8.0 0.00 0.13 0.13 85 1007.6
20260506201538 46 209 6.0 8.0 0.00 0.13 0.13 84 1007.7
20260506201016 46 205 4.0 6.0 0.00 0.13 0.13 84 1007.7
20260506200515 46 238 5.0 7.0 0.00 0.13 0.13 84 1007.8
20260506200038 46 201 4.0 7.0 0.00 0.13 0.13 83 1007.8
20260506195520 46 202 4.0 7.0 0.00 0.13 0.13 84 1007.8
20260506195018 46 203 5.0 7.0 0.00 0.13 0.13 83 1007.8
20260506194530 46 202 5.0 7.0 0.00 0.13 0.13 84 1007.8
20260506194019 46 180 5.0 7.0 0.00 0.13 0.13 83 1007.9
20260506193518 46 198 5.0 8.0 0.00 0.13 0.13 82 1007.9
20260506193031 46 202 5.0 10.0 0.00 0.13 0.13 83 1008.0
20260506192516 46 219 5.0 10.0 0.00 0.13 0.13 86 1008.1
20260506192019 46 221 5.0 8.0 0.00 0.13 0.13 86 1008.0
20260506191530 46 201 5.0 9.0 0.00 0.13 0.13 84 1008.0
20260506191016 46 175 5.0 9.0 0.00 0.13 0.13 84 1008.0
20260506190516 46 212 5.0 9.0 0.00 0.13 0.13 86 1008.1
20260506190038 46 192 5.0 9.0 0.00 0.13 0.13 85 1008.2
20260506185516 46 177 6.0 10.0 0.00 0.13 0.13 84 1008.0
20260506185016 46 180 6.0 10.0 0.00 0.13 0.13 84 1008.2
20260506184536 46 163 5.0 8.0 0.00 0.13 0.13 85 1008.1
20260506184020 46 205 3.0 8.0 0.00 0.13 0.13 85 1008.3
20260506183517 45 224 4.0 6.0 0.00 0.13 0.13 86 1008.3
20260506183032 45 225 4.0 6.0 0.00 0.13 0.13 85 1008.3
20260506182517 45 165 3.0 6.0 0.00 0.13 0.13 86 1008.2
20260506182016 45 217 4.0 6.0 0.00 0.13 0.13 87 1008.3
20260506181532 44 214 4.0 8.0 0.00 0.13 0.13 85 1008.3
20260506181018 44 226 5.0 11.0 0.00 0.13 0.13 86 1008.5
20260506180518 45 224 6.0 12.0 0.00 0.13 0.13 86 1008.5
20260506180032 45 234 9.0 12.0 0.00 0.13 0.13 85 1008.6
20260506175517 45 198 7.0 11.0 0.00 0.13 0.13 85 1008.5
20260506175017 45 171 6.0 12.0 0.00 0.13 0.13 85 1008.4
20260506174531 45 212 6.0 12.0 0.00 0.13 0.13 85 1008.4
20260506174016 45 153 7.0 12.0 0.00 0.13 0.13 86 1008.4
20260506173517 45 185 7.0 12.0 0.00 0.13 0.13 86 1008.4
20260506173045 45 170 8.0 11.0 0.00 0.13 0.13 86 1008.7
20260506172516 44 198 7.0 11.0 0.00 0.13 0.13 88 1008.6
20260506172017 44 212 8.0 11.0 0.00 0.13 0.13 87 1008.8
20260506171536 44 186 8.0 11.0 0.00 0.13 0.13 88 1008.7
20260506171017 44 184 8.0 11.0 0.00 0.13 0.13 90 1008.6
20260506170517 44 213 9.0 12.0 0.01 0.13 0.13 88 1008.5
20260506170031 44 194 8.0 14.0 0.01 0.13 0.13 89 1008.5
20260506165516 44 175 9.0 14.0 0.01 0.13 0.13 88 1008.7
20260506165017 44 217 7.0 13.0 0.01 0.13 0.13 89 1008.7
20260506164534 44 194 8.0 13.0 0.02 0.13 0.13 89 1009.0
20260506164018 44 198 6.0 10.0 0.02 0.13 0.13 89 1009.0
20260506163519 44 209 5.0 8.0 0.02 0.13 0.13 88 1009.0
20260506163037 43 204 5.0 9.0 0.02 0.13 0.13 89 1008.9
20260506162519 43 214 6.0 9.0 0.02 0.13 0.13 90 1009.1
20260506162016 43 207 4.0 8.0 0.03 0.13 0.13 89 1009.3
20260506161534 43 225 5.0 8.0 0.03 0.13 0.13 88 1009.3
20260506161017 43 201 4.0 8.0 0.04 0.13 0.13 89 1009.4
20260506160517 42 215 4.0 6.0 0.03 0.12 0.12 88 1009.5
20260506160032 42 207 4.0 7.0 0.03 0.12 0.12 89 1009.5
20260506155517 42 215 5.0 7.0 0.04 0.14 0.12 89 1009.6
20260506155017 42 199 5.0 7.0 0.03 0.13 0.11 89 1009.7
20260506154534 42 215 5.0 10.0 0.04 0.13 0.11 89 1009.7
20260506154019 42 209 5.0 10.0 0.05 0.13 0.11 89 1009.7
20260506153514 42 227 6.0 10.0 0.06 0.13 0.11 90 1009.6
20260506153035 42 215 7.0 10.0 0.06 0.13 0.11 91 1009.6
20260506152517 42 212 7.0 10.0 0.05 0.12 0.10 90 1009.5
20260506152018 42 208 7.0 10.0 0.06 0.12 0.10 90 1009.6
20260506151530 42 218 6.0 11.0 0.06 0.12 0.10 92 1009.6
20260506151020 42 210 7.0 11.0 0.05 0.11 0.09 91 1009.6
20260506150516 42 186 8.0 12.0 0.06 0.11 0.09 91 1009.5
20260506150035 42 177 8.0 12.0 0.05 0.10 0.08 91 1009.5
20260506145549 42 181 8.0 12.0 0.05 0.15 0.08 91 1009.4
20260506145016 42 189 8.0 14.0 0.05 0.15 0.08 92 1009.3
20260506144538 42 175 10.0 14.0 0.05 0.14 0.07 91 1009.4
20260506144017 42 206 8.0 15.0 0.04 0.13 0.06 91 1009.2
20260506143519 42 225 9.0 16.0 0.03 0.12 0.05 90 1009.2
20260506143033 43 148 11.0 16.0 0.04 0.12 0.05 90 1009.2
20260506142519 43 159 9.0 14.0 0.03 0.11 0.04 90 1009.3
20260506142016 43 178 9.0 13.0 0.03 0.11 0.04 91 1009.3
20260506141532 43 177 9.0 13.0 0.04 0.11 0.04 91 1009.4
20260506141020 43 172 8.0 14.0 0.04 0.11 0.04 91 1009.4
20260506140517 43 211 9.0 14.0 0.03 0.10 0.03 91 1009.4
20260506140033 43 205 7.0 14.0 0.03 0.10 0.03 92 1009.3
20260506135515 43 187 9.0 16.0 0.03 0.10 0.03 91 1009.2
20260506135016 43 156 9.0 16.0 0.03 0.10 0.03 91 1009.3
20260506134531 43 163 11.0 17.0 0.02 0.09 0.02 91 1009.0
20260506134017 43 171 12.0 17.0 0.02 0.09 0.02 90 1008.9
20260506133520 43 203 12.0 17.0 0.01 0.08 0.01 89 1008.8
20260506133031 43 180 11.0 16.0 0.01 0.08 0.01 89 1008.8
20260506132522 43 196 10.0 15.0 0.01 0.08 0.01 89 1009.0
20260506132016 43 169 9.0 12.0 0.01 0.08 0.01 89 1008.8
20260506131541 43 169 7.0 12.0 0.00 0.07 0.00 89 1008.9
20260506131017 43 180 8.0 12.0 0.00 0.07 0.00 89 1008.9
20260506130519 43 198 8.0 12.0 0.00 0.07 0.00 89 1008.8
20260506130037 43 211 8.0 12.0 0.00 0.07 0.00 88 1008.8
20260506125516 43 214 7.0 13.0 0.00 0.07 0.00 89 1009.0
20260506125019 43 201 9.0 16.0 0.00 0.07 0.00 88 1008.9
20260506124530 43 210 8.0 16.0 0.00 0.07 0.00 89 1009.1
20260506124016 43 188 9.0 17.0 0.00 0.07 0.00 89 1009.1
20260506123516 44 167 10.0 17.0 0.00 0.07 0.00 89 1009.0
20260506123034 44 175 13.0 17.0 0.00 0.07 0.00 88 1008.8
20260506122517 44 173 12.0 17.0 0.00 0.07 0.00 88 1008.8
20260506122017 44 156 12.0 17.0 0.00 0.07 0.00 88 1008.6
20260506121533 44 182 11.0 16.0 0.00 0.07 0.00 88 1008.7
20260506121016 44 160 10.0 16.0 0.00 0.07 0.00 87 1008.6
20260506120517 44 156 11.0 15.0 0.00 0.07 0.00 86 1008.7
20260506120035 45 161 9.0 14.0 0.00 0.07 0.00 85 1008.8
20260506115519 45 185 9.0 11.0 0.00 0.07 0.00 84 1008.7
20260506115017 45 188 8.0 11.0 0.00 0.07 0.00 84 1008.7
20260506114535 45 209 8.0 12.0 0.00 0.07 0.00 82 1008.8
20260506114017 45 197 8.0 12.0 0.00 0.07 0.00 81 1008.9
20260506113517 45 197 9.0 11.0 0.00 0.07 0.00 81 1009.0
20260506113030 46 209 7.0 10.0 0.00 0.07 0.00 81 1008.9
20260506112516 46 207 7.0 10.0 0.00 0.07 0.00 80 1008.9
20260506112016 46 190 7.0 9.0 0.00 0.07 0.00 79 1008.9
20260506111534 46 171 6.0 9.0 0.00 0.07 0.00 78 1009.0
20260506111017 47 187 6.0 10.0 0.00 0.07 0.00 76 1008.9
20260506110517 47 209 7.0 10.0 0.00 0.07 0.00 76 1008.9
20260506110034 47 225 6.0 11.0 0.00 0.07 0.00 76 1008.9
20260506105516 47 218 7.0 11.0 0.00 0.07 0.00 76 1008.9
20260506105021 47 220 6.0 11.0 0.00 0.07 0.00 77 1008.8
20260506104531 47 219 7.0 11.0 0.00 0.07 0.00 77 1008.7
20260506104017 47 217 6.0 11.0 0.00 0.07 0.00 78 1008.6
20260506103517 47 211 6.0 10.0 0.00 0.07 0.00 78 1008.6
20260506103043 47 211 7.0 10.0 0.00 0.07 0.00 78 1008.6
20260506102517 47 217 7.0 10.0 0.00 0.07 0.00 79 1008.5
20260506102017 47 219 7.0 9.0 0.00 0.07 0.00 80 1008.4
20260506101548 47 208 5.0 9.0 0.00 0.07 0.00 81 1008.4
20260506101016 47 213 6.0 11.0 0.00 0.07 0.00 80 1008.2
20260506100516 48 207 7.0 12.0 0.00 0.07 0.00 78 1008.1
20260506100045 48 222 8.0 12.0 0.00 0.07 0.00 77 1008.1
20260506095517 47 219 6.0 10.0 0.00 0.07 0.00 77 1008.0
20260506095022 47 212 6.0 11.0 0.00 0.07 0.00 76 1007.8
20260506094534 48 205 6.0 11.0 0.00 0.07 0.00 74 1008.0
20260506094022 48 213 6.0 10.0 0.00 0.07 0.00 74 1008.0
20260506093517 48 192 7.0 14.0 0.00 0.07 0.00 77 1007.9
20260506093040 48 211 7.0 14.0 0.00 0.07 0.00 73 1007.8
20260506092517 48 216 8.0 13.0 0.00 0.07 0.00 73 1007.7
20260506092019 48 198 7.0 13.0 0.00 0.07 0.00 78 1007.8
20260506091535 48 221 7.0 10.0 0.00 0.07 0.00 84 1007.7
20260506091017 48 221 7.0 11.0 0.00 0.07 0.00 83 1007.7
20260506090517 48 223 5.0 11.0 0.00 0.07 0.00 84 1007.7
20260506090035 48 230 5.0 10.0 0.00 0.07 0.00 84 1007.9
20260506085517 48 235 5.0 8.0 0.00 0.07 0.00 84 1007.9
20260506085018 48 240 5.0 8.0 0.00 0.07 0.00 83 1007.8
20260506084554 48 240 6.0 8.0 0.00 0.07 0.00 82 1007.8
20260506084017 48 248 5.0 8.0 0.00 0.07 0.00 82 1007.9
20260506083517 48 235 5.0 8.0 0.00 0.07 0.00 81 1008.0
20260506083035 48 223 5.0 7.0 0.00 0.07 0.00 81 1008.1
20260506082521 48 241 4.0 7.0 0.00 0.07 0.00 81 1008.2
20260506082017 48 244 4.0 8.0 0.00 0.07 0.00 80 1008.2
20260506081541 49 237 5.0 8.0 0.00 0.07 0.00 79 1008.3
20260506081017 49 247 5.0 8.0 0.00 0.07 0.00 79 1008.2
20260506080517 49 252 5.0 9.0 0.00 0.07 0.00 79 1008.2
20260506073517 49 240 6.0 9.0 0.00 0.07 0.00 79 1007.6
20260506073043 49 246 6.0 9.0 0.00 0.07 0.00 79 1007.7
20260506072517 49 256 6.0 10.0 0.00 0.07 0.00 78 1007.7
20260506072017 49 245 6.0 13.0 0.00 0.07 0.00 78 1007.7
20260506071537 50 239 9.0 13.0 0.00 0.07 0.00 77 1007.7
20260506071019 50 251 7.0 11.0 0.00 0.07 0.00 77 1007.7
20260506070517 50 252 5.0 10.0 0.00 0.07 0.00 77 1007.8